Flight Information

DEPARTURE
SAN BERNARDINO, CA
Elevation:
1159
Runways:
6/24 - 10000x200 - CONC-E
ATIS:
124.175
Ground:
121.8
Tower:
119.45
DESTINATION
,
Elevation:
TPA:
1000 (est.)


6736 NM74° True-14° Var60° HDG

Flight Plan:
(click to file on line)

1. Type
2. Aircraft Identification
3. Aircraft Type / Special Equipment
4. True Airspeed
kts
5. Departure Airport
(ICAO code)
6. Arriving Airport
(ICAO code)
7. Cruising Altitude
ft
8. Alternate Airport
(ICAO code)
9. Route of Flight
10. Remarks


00:00:00 Departure ATIS: Destination ATIS:

Clearance Limit:
Route:
Altitude: Expect in minutes
Frequency:
Transponder: (7500 Hijack / 7600 Lost Comms / 7700 Emergency)


KSBD 281956Z 00000KT 10SM BKN150 18/M11 A3030
Time: 2022-01-28T19:56:00Z
1643406553
Winds: calm
Visibility: 10.0 sm
Clouds (AGL): BKN 15000
Temperature: 18.0 C
Dew Point: -11.0 C
Pressure: 30.301182 in Hgbr


Notes:

Data extracted from FAA Digital Chart Supplement. Effective: 0901Z Thursday, DEC 2, 2021 to 0901Z Thursday, JAN 27, 2022
Current ATIS data is provided courtisy of PilotEdge.